Paynesville, MN

2:06 PM CDT on July 26, 2017 (GMT -0500)
Paynesville

Weather History for KPEX - April, 2013

Change the Weather History Date:

Tuesday, April 30, 2013

  Actual Average (KLJF) Record (KLJF)
Temperature  
Mean Temperature 57 °F -  
Max Temperature 66 °F 62 °F 87 °F (1968)
Min Temperature 48 °F 39 °F 23 °F (1966)
Degree Days  
Heating Degree Days 8    
Growing Degree Days 7 (Base 50)    
Moisture  
Dew Point 41 °F    
Average Humidity 53    
Maximum Humidity 79    
Minimum Humidity 22    
Precipitation  
Precipitation 0.00 in - - ()
Sea Level Pressure  
Sea Level Pressure 29.63 in    
Wind  
Wind Speed 14 mph (West)    
Max Wind Speed 28 mph    
Max Gust Speed 34 mph    
Visibility 10 miles    
Events Thunderstorm    
Averages and records for this station are not official NWS values.
T = Trace of Precipitation, MM = Missing Value Source: NWS Daily Summary

Daily Weather History Graph

Daily Weather History Graph

Search for Another Location

Airport or City:

Trip Planner

Search our weather history database for the weather conditions in past years. The results will help you decide how hot, cold, wet, or windy it might be!

Date:

Astronomy

Apr. 30, 2013 Rise Set
Actual Time 6:08 AM CDT 8:24 PM CDT
Civil Twilight 5:36 AM CDT 8:57 PM CDT
Nautical Twilight 4:55 AM CDT 9:37 PM CDT
Astronomical Twilight 4:10 AM CDT 10:23 PM CDT
Moon 12:51 AM CDT (4/30) 10:35 AM CDT (4/30)
Length of Visible Light 15h 21m
Length of Day
14h 16m
Waning Gibbous, 70% of the Moon is Illuminated
Apr 30
Waning Gibbous
May 2
Last Quarter
May 9
New
May 17
First Quarter
May 24
Full

Hourly Weather History & Observations

Time (CDT) Temp. Dew Point Humidity Pressure Visibility Wind Dir Wind Speed Gust Speed Precip Events Conditions
12:13 AM 63.0 °F 47.8 °F 58% 29.49 in 10.0 mi ESE 9.2 mph - N/A   Mostly Cloudy
12:33 AM 63.5 °F 48.9 °F 59% 29.48 in 10.0 mi ESE 10.4 mph - N/A   Mostly Cloudy
12:53 AM 63.3 °F 50.0 °F 62% 29.47 in 10.0 mi SE 11.5 mph - N/A   Scattered Clouds
1:13 AM 61.9 °F 50.9 °F 67% 29.46 in 10.0 mi SE 11.5 mph - N/A   Scattered Clouds
1:33 AM 61.2 °F 51.4 °F 70% 29.45 in 10.0 mi SE 9.2 mph - N/A   Scattered Clouds
1:53 AM 61.3 °F 52.0 °F 71% 29.43 in 10.0 mi SE 9.2 mph - N/A   Clear
2:13 AM 61.2 °F 52.7 °F 74% 29.42 in 10.0 mi SE 11.5 mph 16.1 mph N/A   Scattered Clouds
2:33 AM 61.0 °F 53.2 °F 76% 29.41 in 10.0 mi SE 13.8 mph - N/A   Mostly Cloudy
2:53 AM 60.8 °F 53.2 °F 76% 29.40 in 10.0 mi SE 11.5 mph 19.6 mph N/A   Scattered Clouds
3:13 AM 60.1 °F 53.1 °F 78% 29.39 in 10.0 mi SE 12.7 mph - N/A   Scattered Clouds
3:33 AM 60.3 °F 53.1 °F 77% 29.38 in 10.0 mi SE 12.7 mph 18.4 mph N/A   Clear
3:53 AM 59.7 °F 52.7 °F 78% 29.38 in 10.0 mi SE 13.8 mph - N/A   Clear
4:13 AM 59.9 °F 53.1 °F 78% 29.37 in 10.0 mi SE 10.4 mph - N/A   Clear
4:33 AM 60.4 °F 53.6 °F 78% 29.35 in 10.0 mi SE 11.5 mph - N/A   Clear
4:53 AM 60.6 °F 54.1 °F 79% 29.35 in 10.0 mi SE 13.8 mph 19.6 mph N/A   Clear
5:13 AM 61.9 °F 55.0 °F 78% 29.34 in 10.0 mi SSE 13.8 mph 18.4 mph N/A Thunderstorm Clear
5:33 AM 62.2 °F 55.6 °F 79% 29.35 in 10.0 mi South 11.5 mph 17.3 mph N/A   Clear
5:53 AM 63.5 °F 55.6 °F 75% 29.36 in 10.0 mi South 8.1 mph 19.6 mph N/A   Clear
6:13 AM 63.9 °F 55.4 °F 74% 29.37 in 10.0 mi SSW 16.1 mph 20.7 mph N/A   Clear
6:33 AM 63.5 °F 54.7 °F 73% 29.38 in 10.0 mi SSW 13.8 mph 20.7 mph N/A   Clear
6:53 AM 63.1 °F 51.4 °F 66% 29.39 in 10.0 mi SW 19.6 mph 25.3 mph N/A   Clear
7:13 AM 62.1 °F 48.7 °F 62% 29.40 in 10.0 mi WSW 18.4 mph - N/A   Clear
7:32 AM 59.9 °F 47.5 °F 64% 29.43 in 10.0 mi West 21.9 mph 26.5 mph N/A   Clear
7:53 AM 58.1 °F 46.4 °F 65% 29.45 in 10.0 mi West 18.4 mph 28.8 mph N/A   Clear
8:13 AM 56.7 °F 45.7 °F 67% 29.46 in 10.0 mi WNW 20.7 mph 28.8 mph N/A   Clear
8:33 AM 56.1 °F 45.3 °F 67% 29.48 in 10.0 mi West 21.9 mph 29.9 mph N/A   Clear
8:53 AM 55.4 °F 44.8 °F 67% 29.51 in 10.0 mi West 27.6 mph 33.4 mph N/A   Clear
9:13 AM 54.9 °F 44.1 °F 67% 29.53 in 10.0 mi West 27.6 mph 33.4 mph N/A   Clear
9:33 AM 55.0 °F 45.0 °F 69% 29.55 in 10.0 mi West 24.2 mph 33.4 mph N/A   Clear
9:53 AM 57.0 °F 44.6 °F 63% 29.56 in 10.0 mi West 20.7 mph 28.8 mph N/A   Clear
10:13 AM 58.5 °F 44.2 °F 59% 29.57 in 10.0 mi WNW 19.6 mph 28.8 mph N/A   Clear
10:33 AM 58.8 °F 43.0 °F 56% 29.58 in 10.0 mi WNW 24.2 mph 31.1 mph N/A   Clear
10:53 AM 59.7 °F 43.3 °F 55% 29.61 in 10.0 mi West 17.3 mph 28.8 mph N/A   Clear
11:13 AM 59.4 °F 43.2 °F 55% 29.62 in 10.0 mi West 23.0 mph 27.6 mph N/A   Clear
11:33 AM 60.4 °F 42.4 °F 51% 29.62 in 10.0 mi WNW 19.6 mph 27.6 mph N/A   Clear
11:53 AM 61.7 °F 40.3 °F 45% 29.64 in 10.0 mi West 26.5 mph 34.5 mph N/A   Clear
12:13 PM 61.9 °F 36.9 °F 39% 29.66 in 10.0 mi West 18.4 mph 25.3 mph N/A   Clear
12:33 PM 62.8 °F 33.8 °F 34% 29.67 in 10.0 mi West 21.9 mph 32.2 mph N/A   Clear
12:53 PM 63.3 °F 32.0 °F 31% 29.67 in 10.0 mi WNW 19.6 mph 27.6 mph N/A   Clear
1:13 PM 63.7 °F 31.3 °F 30% 29.68 in 10.0 mi West 19.6 mph 25.3 mph N/A   Clear
1:33 PM 64.2 °F 29.5 °F 27% 29.68 in 10.0 mi West 18.4 mph 24.2 mph N/A   Clear
1:53 PM 63.0 °F 28.6 °F 27% 29.69 in 10.0 mi West 15.0 mph 25.3 mph N/A   Clear
2:13 PM 65.8 °F 30.2 °F 26% 29.70 in 10.0 mi West 20.7 mph 26.5 mph N/A   Scattered Clouds
2:33 PM 63.9 °F 26.8 °F 25% 29.69 in 10.0 mi West 16.1 mph 28.8 mph N/A   Clear
2:53 PM 64.2 °F 24.4 °F 22% 29.71 in 10.0 mi WNW 20.7 mph 27.6 mph N/A   Scattered Clouds
3:13 PM 64.6 °F 25.3 °F 23% 29.72 in 10.0 mi West 18.4 mph 25.3 mph N/A   Scattered Clouds
3:33 PM 65.7 °F 27.1 °F 23% 29.73 in 10.0 mi West 17.3 mph 25.3 mph N/A   Clear
3:53 PM 64.6 °F 26.1 °F 23% 29.75 in 10.0 mi West 18.4 mph 25.3 mph N/A   Clear
4:13 PM 63.7 °F 26.2 °F 24% 29.76 in 10.0 mi WNW 18.4 mph 25.3 mph N/A   Clear
4:33 PM 61.9 °F 27.7 °F 27% 29.78 in 10.0 mi West 12.7 mph 21.9 mph N/A   Scattered Clouds
4:53 PM 60.4 °F 30.0 °F 32% 29.79 in 7.0 mi WNW 10.4 mph - N/A   Mostly Cloudy
5:13 PM 60.1 °F 32.0 °F 35% 29.82 in 10.0 mi West 13.8 mph 17.3 mph N/A   Overcast
5:33 PM 59.7 °F 32.2 °F 35% 29.82 in 7.0 mi WNW 9.2 mph - N/A   Overcast
5:53 PM 59.7 °F 32.5 °F 36% 29.83 in 10.0 mi West 10.4 mph 16.1 mph N/A   Mostly Cloudy
6:13 PM 59.2 °F 32.2 °F 36% 29.83 in 10.0 mi West 8.1 mph 12.7 mph N/A   Mostly Cloudy
6:33 PM 59.4 °F 33.3 °F 37% 29.86 in 10.0 mi West 9.2 mph - N/A   Mostly Cloudy
6:53 PM 58.5 °F 33.4 °F 39% 29.87 in 10.0 mi West 10.4 mph 19.6 mph N/A   Mostly Cloudy
7:13 PM 58.1 °F 32.5 °F 38% 29.88 in 10.0 mi West 10.4 mph - N/A   Overcast
7:33 PM 56.7 °F 33.8 °F 42% 29.88 in 10.0 mi West 9.2 mph - N/A   Scattered Clouds
8:13 PM 54.5 °F 36.5 °F 51% 29.89 in 10.0 mi West 6.9 mph - N/A   Scattered Clouds
8:33 PM 54.9 °F 35.6 °F 48% 29.89 in 10.0 mi West 6.9 mph - N/A   Clear
8:53 PM 55.0 °F 35.2 °F 47% 29.90 in 10.0 mi WNW 10.4 mph - N/A   Mostly Cloudy
9:13 PM 53.6 °F 34.0 °F 47% 29.90 in 10.0 mi WNW 6.9 mph - N/A   Scattered Clouds
9:33 PM 52.3 °F 34.7 °F 51% 29.92 in 10.0 mi WNW 8.1 mph - N/A   Mostly Cloudy
10:13 PM 51.6 °F 33.8 °F 51% 29.95 in 10.0 mi WNW 12.7 mph - N/A   Overcast
10:33 PM 50.9 °F 32.7 °F 50% 29.95 in 10.0 mi WNW 12.7 mph 19.6 mph N/A   Mostly Cloudy
10:53 PM 50.2 °F 33.4 °F 53% 29.96 in 10.0 mi WNW 9.2 mph - N/A   Mostly Cloudy
11:13 PM 49.5 °F 33.8 °F 55% 29.98 in 10.0 mi NW 15.0 mph 20.7 mph N/A   Overcast
11:33 PM 49.1 °F 33.4 °F 55% 29.99 in 10.0 mi WNW 10.4 mph 17.3 mph N/A   Overcast
11:53 PM 48.2 °F 32.5 °F 55% 30.00 in 10.0 mi NW 13.8 mph 18.4 mph N/A   Overcast